Location: Newark
(60.6561°N, 46.5772°E)
Time: 13:14:40
(UTC+00:00)

Vanguard 2 - All Passes

Search period start: 18 October 2019 00:00
Search period end: 28 October 2019 00:00
Orbit: 554 x 2937 km, 32.9° (Epoch: 17 October)

Date Brightness Start Highest point End Pass type
(mag) Time Alt. Az. Time Alt. Az. Time Alt. Az.
18 Oct - 16:17:47 10° SSW 16:24:17 16° SSE 16:32:08 10° SE visible
18 Oct - 18:23:29 10° SW 18:32:01 19° S 18:42:08 10° SE visible
18 Oct - 20:33:16 10° SW 20:40:03 14° SSW 20:47:25 10° S visible
19 Oct - 16:34:39 10° SSW 16:41:23 17° SSE 16:49:35 10° SE visible
19 Oct - 18:41:13 10° SW 18:49:12 18° S 18:58:36 10° SSE visible
19 Oct - 20:53:19 10° SW 20:57:07 11° SSW 21:01:05 10° SSW visible
20 Oct - 14:50:30 10° SSE 14:51:33 10° SSE 14:52:39 10° SE visible
20 Oct - 16:51:49 10° SSW 16:58:33 17° S 17:06:46 10° SE visible
20 Oct - 18:59:15 10° SW 19:06:23 16° SSW 19:14:38 10° SSE visible
21 Oct - 15:05:27 10° S 15:08:35 12° SSE 15:12:04 10° SE visible
21 Oct - 17:09:14 10° SSW 17:15:45 17° S 17:23:40 10° SE visible
21 Oct - 19:17:50 10° SW 19:23:34 14° SSW 19:29:59 10° S visible
22 Oct - 15:21:51 10° S 15:25:40 12° SSE 15:30:03 10° SE visible
22 Oct - 17:26:55 10° SSW 17:32:58 15° S 17:40:12 10° SSE visible
22 Oct - 19:37:56 10° SW 19:40:44 11° SSW 19:43:42 10° SSW visible
23 Oct - 15:38:48 10° S 15:42:49 13° SSE 15:47:30 10° SE visible
23 Oct - 17:45:00 10° SW 17:50:12 14° S 17:56:17 10° SSE visible
24 Oct - 15:56:08 10° SSW 16:00:01 13° S 16:04:32 10° SSE visible
24 Oct - 18:03:48 10° SSW 18:07:27 12° SSW 18:11:31 10° S visible
25 Oct - 16:13:55 10° SSW 16:17:16 12° S 16:21:04 10° SSE visible
26 Oct - 16:32:32 10° SSW 16:34:32 11° S 16:36:41 10° S visible
